This is the latest recevied weather packets stored in our database for station/object LZ0VRC-10. If no packets are shown the sender has not sent any weather packets the latest 1 day(s).
| Time | Temp. | Humidity | Pressure | Rain* | Wind** | Luminosity | Snow |
|---|---|---|---|---|---|---|---|
| 1778113196 | 21.11° C | 34% | 1013.7 hPa | - | - | - | - |
| 1778093402 | 20.56° C | 39% | 1013.6 hPa | - | - | - | - |
| 1778093397 | 20.56° C | 39% | 1013.6 hPa | - | - | - | - |
| 1778092497 | 20.56° C | 39% | 1013.5 hPa | - | - | - | - |
| 1778091602 | 20.56° C | 38% | 1013.4 hPa | - | - | - | - |
| 1778091597 | 20.56° C | 38% | 1013.4 hPa | - | - | - | - |
| 1778090697 | 21.11° C | 38% | 1013.1 hPa | - | - | - | - |
| 1778089797 | 21.67° C | 36% | 1013 hPa | - | - | - | - |
| 1778088902 | 22.78° C | 33% | 1013 hPa | - | - | - | - |
| 1778088897 | 22.78° C | 33% | 1013 hPa | - | - | - | - |
| 1778087102 | 23.89° C | 30% | 1012.9 hPa | - | - | - | - |
| 1778086202 | 24.44° C | 30% | 1012.8 hPa | - | - | - | - |
| 1778086197 | 24.44° C | 30% | 1012.8 hPa | - | - | - | - |
| 1778085297 | 25° C | 29% | 1012.7 hPa | - | - | - | - |
| 1778084402 | 25.56° C | 28% | 1012.7 hPa | - | - | - | - |
| 1778084397 | 25.56° C | 28% | 1012.7 hPa | - | - | - | - |
| 1778083502 | 26.11° C | 27% | 1012.7 hPa | - | - | - | - |
| 1778083497 | 26.11° C | 27% | 1012.7 hPa | - | - | - | - |
| 1778081702 | 28.33° C | 24% | 1012.8 hPa | - | - | - | - |
| 1778081697 | 28.33° C | 24% | 1012.8 hPa | - | - | - | - |
| 1778079902 | 30° C | 22% | 1012.9 hPa | - | - | - | - |
| 1778076302 | 31.67° C | 21% | 1013.1 hPa | - | - | - | - |
| 1778073597 | 31.11° C | 21% | 1013.4 hPa | - | - | - | - |
| 1778070902 | 32.22° C | 20% | 1013.8 hPa | - | - | - | - |
| 1778058298 | 30.56° C | 18% | 1015.7 hPa | - | - | - | - |
* Rain since midnight (hover to see other rain measurements)
** Current wind speed in m/s (hover to see current wind gust speed)